Погода в Лорето

Мексика     26°00′14″N   111°20′35″W
темп.,
°C
ветер,
м/с
пор.,
м/с
влажн.,
%
обл.,
%
осадки,
мм/ч
давл.,
гПа
погр.,
м
24 января, пн
пн2423:00+17сз686059 0.0 1018681
02:00+16сз5763100 0.0 1017550
05:00+16сз566298 0.0 1016416
08:00+16сз575723 0.0 1017461
11:00+18ссз57510 0.0 1017552
14:00+19с77610 0.0 1015486
17:00+19с66630 0.0 1014453
20:00+18ссз56610 0.0 1016348
25 января, вт
вт2523:00+19зсз345210 0.0 1016200
02:00+19зсз33490 0.0 1014166
05:00+19з11475 0.0 101462
08:00+19юв01483 0.0 101677
11:00+19юв21420 0.0 1017242
14:00+19в334458 0.0 1014254
17:00+19юв235495 0.0 1014141
20:00+18ююз2259100 0.0 1015106
26 января, ср
ср2623:00+19ююз2258100 0.0 101540
02:00+19зсз11595 0.0 101511
05:00+19с2254100 0.0 101552
08:00+19ссз335891 0.0 1016231
11:00+19с33546 0.0 1018332
14:00+19с5558100 0.0 1016392
17:00+19с5663100 0.0 1015356
20:00+18ссз566491 0.0 1016293
27 января, чт
чт2723:00+18ссз455860 0.0 1017253
02:00+18ссз445370 0.0 1016224
05:00+17ссз565652 0.0 1016328
08:00+17сз565670 0.0 1018325
11:00+19с45499 0.0 1019372
14:00+19с66545 0.0 1017403
17:00+19с785933 0.0 1017392
20:00+18ссз81050100 0.0 1019414
28 января, пт
пт2823:00+18сз61041100 0.0 1020438
02:00+18ссз7104199 0.0 1019458
05:00+18сз71141100 0.0 1019477
08:00+18ссз71140100 0.0 1020485
11:00+20ссз811480 0.0 1020471
14:00+19с1112580 0.0 1018572
17:00+19ссз1011531 0.0 1017440
20:00+18ссз810520 0.0 1018356